Location: The Saddle
(36.8333°N, 80.3417°W)
Time: 10:38:36
(UTC-04:00)

KAITUO 1B - Visible Passes

Search period start: 21 March 2023 00:00
Search period end: 31 March 2023 00:00
Orbit: 447 x 463 km, 97.4° (Epoch: 21 March)

Date Brightness Start Highest point End Pass type
(mag) Time Alt. Az. Time Alt. Az. Time Alt. Az.
22 Mar ? 20:34:16 10° WSW 20:35:14 11° W 20:36:11 10° WNW visible
23 Mar ? 19:58:33 10° SSW 20:01:35 31° W 20:04:38 10° NNW visible
25 Mar ? 20:25:31 10° SW 20:27:23 14° W 20:29:16 10° WNW visible
28 Mar ? 20:16:28 10° SW 20:18:54 18° W 20:21:21 10° NW visible
